Clermont County, Batavia, OH

7:02 AM EST on January 24, 2018 (GMT -0500)
Clermont County, Batavia

Weather History for KI69 - December, 2013

Change the Weather History Date:

Friday, December 6, 2013

  Actual Average (KLUK) Record (KLUK)
Temperature  
Mean Temperature 32 °F -  
Max Temperature 33 °F 46 °F 73 °F (1998)
Min Temperature 30 °F 27 °F 2 °F (1977)
Degree Days  
Heating Degree Days 34    
Moisture  
Dew Point 31 °F    
Average Humidity 97    
Maximum Humidity 100    
Minimum Humidity 93    
Precipitation  
Precipitation 0.32 in - - ()
Sea Level Pressure  
Sea Level Pressure 30.21 in    
Wind  
Wind Speed 6 mph (North)    
Max Wind Speed 13 mph    
Max Gust Speed 17 mph    
Visibility 5 miles    
Events Snow    
Averages and records for this station are not official NWS values.
T = Trace of Precipitation, MM = Missing Value Source: NWS Daily Summary

Daily Weather History Graph

Daily Weather History Graph

Search for Another Location

Airport or City:

Trip Planner

Search our weather history database for the weather conditions in past years. The results will help you decide how hot, cold, wet, or windy it might be!

Date:

Astronomy

Dec. 06, 2013 Rise Set
Actual Time 7:41 AM EST 5:14 PM EST
Civil Twilight 7:12 AM EST 5:43 PM EST
Nautical Twilight 6:38 AM EST 6:17 PM EST
Astronomical Twilight 6:06 AM EST 6:49 PM EST
Moon 10:47 AM EST (12/6) 9:43 PM EST (12/6)
Length of Visible Light 10h 31m
Length of Day
9h 32m
Waxing Crescent, 19% of the Moon is Illuminated
Dec 6
Waxing Crescent
Dec 9
First Quarter
Dec 17
Full
Dec 25
Last Quarter
Jan 1
New

Hourly Weather History & Observations

Time (EST) Temp. Windchill Dew Point Humidity Pressure Visibility Wind Dir Wind Speed Gust Speed Precip Events Conditions
12:18 AM 33.8 °F 28.6 °F 32.0 °F 93% 30.13 in 7.0 mi NE 5.8 mph - N/A   Overcast
12:38 AM 33.8 °F 29.6 °F 32.0 °F 93% 30.12 in 10.0 mi North 4.6 mph - N/A   Overcast
12:58 AM 33.8 °F 27.0 °F 32.0 °F 93% 30.13 in 10.0 mi North 8.1 mph - N/A   Overcast
1:18 AM 33.8 °F 28.6 °F 32.0 °F 93% 30.13 in 10.0 mi North 5.8 mph - N/A   Overcast
1:37 AM 33.8 °F 28.6 °F 32.0 °F 93% 30.16 in 10.0 mi NNW 5.8 mph - N/A   Overcast
1:58 AM 33.8 °F 30.8 °F 32.0 °F 93% 30.15 in 5.0 mi NNW 3.5 mph - 0.01 in Snow Light Snow
2:18 AM 33.8 °F 30.8 °F 32.0 °F 93% 30.14 in 7.0 mi North 3.5 mph - N/A Snow Light Snow
2:37 AM 33.8 °F 29.6 °F 32.0 °F 93% 30.13 in 5.0 mi North 4.6 mph - N/A Snow Light Snow
2:58 AM 33.8 °F 29.6 °F 32.0 °F 93% 30.12 in 5.0 mi NE 4.6 mph - N/A Snow Light Snow
3:18 AM 33.8 °F 27.7 °F 32.0 °F 93% 30.17 in 3.0 mi NW 6.9 mph - 0.04 in Snow Light Snow
3:37 AM 32.0 °F 24.8 °F 32.0 °F 100% 30.18 in 3.0 mi NNW 8.1 mph - 0.08 in Snow Light Snow
3:58 AM 32.0 °F 25.6 °F 32.0 °F 100% 30.17 in 5.0 mi North 6.9 mph - 0.10 in Snow Light Snow
4:18 AM 32.0 °F 28.7 °F 32.0 °F 100% 30.19 in 5.0 mi North 3.5 mph - N/A Snow Light Snow
4:37 AM 32.0 °F 27.5 °F 32.0 °F 100% 30.18 in 4.0 mi North 4.6 mph - 0.01 in Snow Light Snow
4:58 AM 33.8 °F 28.6 °F 32.0 °F 93% 30.16 in 5.0 mi NNE 5.8 mph - 0.03 in Snow Light Snow
5:18 AM 32.0 °F 26.4 °F 32.0 °F 100% 30.16 in 5.0 mi NNE 5.8 mph - N/A Snow Light Snow
5:37 AM 33.8 °F - 32.0 °F 93% 30.17 in 7.0 mi Calm Calm - N/A Snow Light Snow
5:58 AM 32.0 °F 27.5 °F 32.0 °F 100% 30.16 in 7.0 mi North 4.6 mph - N/A Snow Light Snow
6:18 AM 32.0 °F 26.4 °F 32.0 °F 100% 30.18 in 7.0 mi NNE 5.8 mph - N/A   Overcast
6:37 AM 32.0 °F 25.6 °F 32.0 °F 100% 30.17 in 7.0 mi North 6.9 mph - N/A   Overcast
6:58 AM 32.0 °F 26.4 °F 32.0 °F 100% 30.16 in 7.0 mi NNE 5.8 mph - N/A   Overcast
7:18 AM 32.0 °F 26.4 °F 32.0 °F 100% 30.17 in 7.0 mi North 5.8 mph - N/A   Overcast
7:37 AM 32.0 °F 26.4 °F 32.0 °F 100% 30.18 in 7.0 mi North 5.8 mph - N/A   Overcast
7:58 AM 32.0 °F 24.2 °F 32.0 °F 100% 30.20 in 7.0 mi NNW 9.2 mph - N/A   Overcast
8:17 AM 32.0 °F 24.2 °F 32.0 °F 100% 30.18 in 7.0 mi North 9.2 mph - N/A   Overcast
8:38 AM 32.0 °F 26.4 °F 32.0 °F 100% 30.20 in 5.0 mi NE 5.8 mph - N/A   Overcast
8:58 AM 32.0 °F 27.5 °F 32.0 °F 100% 30.20 in 5.0 mi NNE 4.6 mph - N/A   Overcast
9:17 AM 32.0 °F 27.5 °F 32.0 °F 100% 30.20 in 5.0 mi NNE 4.6 mph - N/A   Overcast
9:38 AM 32.0 °F 24.8 °F 32.0 °F 100% 30.19 in 4.0 mi NNE 8.1 mph - N/A Snow Light Snow
9:58 AM 32.0 °F 27.5 °F 32.0 °F 100% 30.20 in 5.0 mi NNE 4.6 mph - N/A   Overcast
10:17 AM 32.0 °F 25.6 °F 32.0 °F 100% 30.20 in 4.0 mi North 6.9 mph - N/A Snow Light Snow
10:38 AM 32.0 °F 25.6 °F 32.0 °F 100% 30.23 in 4.0 mi North 6.9 mph - N/A   Overcast
10:58 AM 32.0 °F 25.6 °F 32.0 °F 100% 30.20 in 4.0 mi NNE 6.9 mph - N/A Snow Light Snow
11:17 AM 32.0 °F 26.4 °F 32.0 °F 100% 30.22 in 4.0 mi North 5.8 mph - N/A   Overcast
11:38 AM 32.0 °F 24.2 °F 32.0 °F 100% 30.21 in 4.0 mi North 9.2 mph - N/A Snow Light Snow
11:58 AM 32.0 °F 24.8 °F 32.0 °F 100% 30.20 in 3.0 mi North 8.1 mph - N/A Snow Light Snow
12:17 PM 32.0 °F 24.8 °F 32.0 °F 100% 30.20 in 4.0 mi North 8.1 mph - 0.01 in Snow Light Snow
12:38 PM 32.0 °F 24.8 °F 32.0 °F 100% 30.20 in 5.0 mi North 8.1 mph - 0.01 in Snow Light Snow
12:58 PM 32.0 °F 24.8 °F 32.0 °F 100% 30.18 in 5.0 mi NNE 8.1 mph - 0.02 in Snow Light Snow
1:17 PM 32.0 °F 24.8 °F 30.2 °F 93% 30.19 in 3.0 mi North 8.1 mph - 0.01 in Snow Light Snow
1:38 PM 32.0 °F 25.6 °F 30.2 °F 93% 30.17 in 1.5 mi NNE 6.9 mph - 0.02 in Snow Light Snow
1:58 PM 32.0 °F 24.8 °F 32.0 °F 100% 30.15 in 1.8 mi NNE 8.1 mph - 0.04 in Snow Light Snow
2:17 PM 32.0 °F 25.6 °F 32.0 °F 100% 30.16 in 4.0 mi NNE 6.9 mph - N/A Snow Light Snow
2:38 PM 32.0 °F 26.4 °F 30.2 °F 93% 30.16 in 4.0 mi North 5.8 mph 16.1 mph N/A Snow Light Snow
2:58 PM 32.0 °F 22.5 °F 30.2 °F 93% 30.14 in 4.0 mi NNE 12.7 mph 17.3 mph 0.02 in Snow Light Snow
3:18 PM 32.0 °F 27.5 °F 30.2 °F 93% 30.18 in 3.0 mi North 4.6 mph - 0.02 in Snow Light Snow
3:38 PM 32.0 °F 24.8 °F 30.2 °F 93% 30.18 in 1.5 mi North 8.1 mph - 0.02 in Snow Light Snow
3:58 PM 30.2 °F 22.6 °F 30.2 °F 100% 30.21 in 0.8 mi North 8.1 mph - 0.03 in Snow Light Snow
4:18 PM 30.2 °F 23.4 °F 30.2 °F 100% 30.21 in 0.8 mi North 6.9 mph - 0.01 in Snow Light Snow
4:38 PM 30.2 °F 24.3 °F 30.2 °F 100% 30.20 in 0.5 mi NNE 5.8 mph - 0.02 in Snow Snow
4:58 PM 30.2 °F 24.3 °F 30.2 °F 100% 30.21 in 0.5 mi NNE 5.8 mph - 0.03 in Snow Snow
5:18 PM 30.2 °F 22.6 °F 30.2 °F 100% 30.22 in 1.5 mi North 8.1 mph - N/A Snow Light Snow
5:38 PM 30.2 °F 25.4 °F 30.2 °F 100% 30.23 in 0.8 mi North 4.6 mph - 0.01 in Snow Snow
5:58 PM 30.2 °F 25.4 °F 30.2 °F 100% 30.23 in 1.2 mi NNE 4.6 mph - 0.01 in Snow Light Snow
6:18 PM 30.2 °F 26.7 °F 30.2 °F 100% 30.25 in 1.8 mi North 3.5 mph - 0.01 in Snow Light Snow
6:38 PM 30.2 °F 21.9 °F 30.2 °F 100% 30.27 in 1.2 mi NNE 9.2 mph - 0.01 in Snow Light Snow
6:58 PM 30.2 °F 24.3 °F 30.2 °F 100% 30.28 in 0.8 mi NNE 5.8 mph 16.1 mph 0.02 in Snow Snow
7:18 PM 30.2 °F 25.4 °F 30.2 °F 100% 30.26 in 1.0 mi NNE 4.6 mph - 0.01 in Snow Light Snow
7:38 PM 30.2 °F 26.7 °F 30.2 °F 100% 30.28 in 3.0 mi North 3.5 mph - 0.01 in Snow Light Snow
7:58 PM 30.2 °F 23.4 °F 30.2 °F 100% 30.28 in 1.8 mi North 6.9 mph - 0.01 in Snow Light Snow
8:18 PM 30.2 °F 25.4 °F 30.2 °F 100% 30.28 in 4.0 mi North 4.6 mph - N/A Snow Light Snow
8:38 PM 30.2 °F 25.4 °F 30.2 °F 100% 30.31 in 7.0 mi NNW 4.6 mph - N/A Snow Light Snow
8:58 PM 30.2 °F 24.3 °F 30.2 °F 100% 30.32 in 7.0 mi NNW 5.8 mph - N/A   Overcast
9:18 PM 30.2 °F 23.4 °F 28.4 °F 93% 30.32 in 7.0 mi North 6.9 mph - N/A Snow Light Snow
9:38 PM 30.2 °F 24.3 °F 28.4 °F 93% 30.33 in 2.5 mi North 5.8 mph - N/A Snow Light Snow
9:58 PM 30.2 °F 26.7 °F 28.4 °F 93% 30.33 in 4.0 mi North 3.5 mph - N/A   Overcast
10:18 PM 30.2 °F 25.4 °F 28.4 °F 93% 30.34 in 10.0 mi North 4.6 mph - N/A   Overcast
10:38 PM 30.2 °F 26.7 °F 28.4 °F 93% 30.35 in 10.0 mi North 3.5 mph - N/A   Overcast
10:58 PM 30.2 °F 25.4 °F 28.4 °F 93% 30.35 in 7.0 mi North 4.6 mph - N/A   Overcast
11:18 PM 30.2 °F 26.7 °F 28.4 °F 93% 30.36 in 5.0 mi NNW 3.5 mph - N/A Snow Light Snow
11:38 PM 30.2 °F 25.4 °F 28.4 °F 93% 30.36 in 7.0 mi North 4.6 mph - N/A   Overcast
11:58 PM 30.2 °F 25.4 °F 28.4 °F 93% 30.37 in 7.0 mi North 4.6 mph - N/A   Overcast